CZ-6A DEB, 56659

Orbit data source: Space-Track

CZ-6A DEB, 56659 is space debris in SSO originally from a launch on Fri, 11 Nov 2022 UTC launched from the Taiyaun Space Center, China (TSC). Debris objects in space refer to the collection of defunct objects orbiting the Earth. Examples of debris include non-operational satellites, rocket bodies, and fragments generated from explosions, collisions, or faulty payload assembly.

Loading next visibility...
Identifier
56659, 2022-151AGK
Orbit
SSO
Country
Flag of CNCN / PRC
Related business
Manufacturer
SAST
Mission
Spacecraft
Bus & Motor
Unknown
Mass
Unknown
Launch date (UTC)
2022-11-11 (4 years ago)
Launch vehicle
Unknown
Launch site
Taiyaun Space Center, China (TSC)
Object type
Payload
Rocket body
Debris
Shape & HBR
Unknown shape, 0.1 m
Radar Cross Section
Medium (>0.1 m² and <1 m²)

Expand to show TLE details & history
Last TLE update: 2 days ago

TLE from 2 days ago
0 CZ-6A DEB
1 56659U 22151AGK 26171.03551876  .00002520  00000-0  87438-3 0  9996
2 56659  98.7128 202.3564 0023048 323.3344  36.6264 14.36325708168347
Epoch: 2026-06-20T00:51Z
TLE epoch observation values (Epoch: 2026-06-20T00:51:08.820Z)
Latitude
0.00001°
Longitude
-78.68627°
Altitude
760.389 km
Speed
7.481 km/s
True Right ascension
13h 29m 25s
True Declination
0° 00' 00"
Sunlit
Object was in daylight at epoch
Visualization orbit readout
Latitude
Unknown
Longitude
Unknown
Altitude
Unknown
Speed
Unknown
Apparent Right ascension
Unknown
Apparent Declination
Unknown
Sunlit
N/A
Visualization observer readout
Local Sidereal Time
21:32:20
Azimuth
Unknown
Elevation
Unknown
Doppler factor
Unknown
Orbital elements
Apogee altitude
784.271 km
Perigee altitude
751.331 km
Semi-major axis
7,145.938 km
Eccentricity
0.0023
Inclination
98.7128°
RAAN
202.3564°
Arg. of periapsis
323.3344°
True anomaly
36.78433°
Mean anomaly
36.6264°
Eccentric anomaly
36.70533°
Mean motion
3.59298 °/min
Orbital period
100.2 mins
BSTAR
0.00087438
Loading maneuver chart data...
Computing Atmospheric mass density...
Loading historical data...
Loading historical data...
Loading historical data...
Loading historical data...
Loading historical data...
Loading historical data...
Loading historical data...

Documentation

Showing up to 5 results
|